Location: Assche-ter-Heiden
(50.9174°N, 4.1574°E)
Time: 13:57:10
(UTC+00:00)

SL-4 R/B - Pass Details

Date: 20 January 2020
Orbit: 428 x 666 km, 51.6° (Epoch: 17 February)

Event Time Altitude Azimuth Distance (km) Brightness Sun altitude
Exits shadow 06:15:07 16° 253° (WSW) 1,277 3.4 -12.4°
Maximum altitude 06:16:41 20° 218° (SW) 1,072 3.3 -12.1°
Drops below altitude 10° 06:19:19 10° 168° (SSE) 1,539 4.7 -11.7°
Sets 06:21:43 0° 152° (SSE) 2,388 6.1 -11.4°
